User: anonymous   Login
Location: Trois-Rivi�res
(46.3500°N, 72.5500°W)
Time: 07:15:48
(UTC-04:00)
Language:

Cosmos 1544 - Orbit

View from above orbital plane
View from above orbital plane
View from above satellite
View from above satellite

Ground track
Ground track

The orbit data is extracted from the following two-line orbital elements,

1 14819U 84027A   16120.41155448  .00002628  00000-0  10586-3 0  9997
2 14819  82.4845  83.1519 0016581  58.7328 301.5530 15.24285255752748
Epoch (UTC): 29 April 2016 09:52:38
Eccentricity: 0.0016581
inclination: 82.4845°
perigee height: 481 km
apogee height: 504 km
right ascension of ascending node: 83.1519°
argument of perigee: 58.7328°
revolutions per day: 15.24285255
mean anomaly at epoch: 301.5530°
orbit number at epoch: 75274

The dashed part of the orbit path shows where the satellite is in the earth's shadow,  

DLR